Fort Covington, New York, United States (12937)
Lat: 44.99N, Lon: 74.5W
Wx Zone: NYZ027
Local Info
Past Weather Observations for Monday, February 23, 2015

NOTE: This archive is for the closest National Weather Service station to Fort Covington. Information may differ from the station used for current weather conditions.

Click here for Long-term Archive

Time Weather Temperature Dewpoint Humidity Pressure Winds Precip Visibility
23:53
Clear
-9°F / -23°C -18°F / -28°C 64% 30.3 in
(1026 mb)
SW 9.2 mph
(SW 15 kph)
- 10SM
22:53
Clear
-13°F / -25°C -20°F / -29°C 69% 30.33 in
(1027 mb)
SW 8.1 mph
(SW 13 kph)
- 10SM
21:53
Clear
-20°F / -29°C -29°F / -34°C 62% 30.36 in
(1028 mb)
SW 3.5 mph
(SW 6 kph)
- 10SM
20:53
Clear
-20°F / -29°C -27°F / -33°C 68% 30.36 in
(1028 mb)
Calm - 10SM
19:53
Clear
-18°F / -28°C -27°F / -33°C 62% 30.36 in
(1028 mb)
Calm - 10SM
18:53
Clear
-15°F / -26°C -24°F / -31°C 63% 30.36 in
(1028 mb)
Calm - 10SM
17:53
Clear
-8°F / -22°C -22°F / -30°C 48% 30.36 in
(1028 mb)
NW 3.5 mph
(NW 6 kph)
- 10SM
16:53
Clear
-2°F / -19°C -20°F / -29°C 41% 30.39 in
(1029 mb)
NW 5.8 mph
(NW 9 kph)
- 10SM
15:53
Clear
-2°F / -19°C -20°F / -29°C 41% 30.39 in
(1029 mb)
WNW 8.1 mph
(WNW 13 kph)
- 10SM
14:53
Clear
-2°F / -19°C -20°F / -29°C 41% 30.42 in
(1030 mb)
W 13.8 mph
(W 22 kph)
- 10SM
13:53
Clear
-2°F / -19°C -20°F / -29°C 41% 30.42 in
(1030 mb)
W 12.7 mph
(W 20 kph)
- 10SM
12:53
Clear
-4°F / -20°C -20°F / -29°C 45% 30.42 in
(1030 mb)
W 16.1 mph
(W 26 kph)
- 10SM
11:53
Clear
-6°F / -21°C -20°F / -29°C 49% 30.45 in
(1031 mb)
SSW 17.3 mph
(SSW 28 kph)
- 10SM
10:53
Clear
-6°F / -21°C -20°F / -29°C 49% 30.45 in
(1031 mb)
W 13.8 mph
(W 22 kph)
- 10SM
09:53
Partly Cloudy
-6°F / -21°C -20°F / -29°C 49% 30.45 in
(1031 mb)
WNW 10.4 mph
(WNW 17 kph)
- 10SM
08:53
Overcast
-6°F / -21°C -18°F / -28°C 54% 30.45 in
(1031 mb)
W 11.5 mph
(W 19 kph)
- 10SM
07:53
Mostly Cloudy
-6°F / -21°C -20°F / -29°C 49% 30.45 in
(1031 mb)
W 12.7 mph
(W 20 kph)
- 10SM
06:53
Overcast
-4°F / -20°C -17°F / -27°C 54% 30.42 in
(1030 mb)
W 10.4 mph
(W 17 kph)
- 10SM
05:53
Overcast
-2°F / -19°C -15°F / -26°C 54% 30.39 in
(1029 mb)
NW 6.9 mph
(NW 11 kph)
- 10SM
04:53
Overcast
°F / -18°C -11°F / -24°C 60% 30.36 in
(1028 mb)
W 10.4 mph
(W 17 kph)
- 10SM
03:53
Overcast
3°F / -16°C -8°F / -22°C 60% 30.33 in
(1027 mb)
W 15 mph
(W 24 kph)
- 10SM
02:53
Overcast
7°F / -14°C -8°F / -22°C 51% 30.3 in
(1026 mb)
W 13.8 mph
(W 22 kph)
- 10SM
01:53
Overcast
10°F / -12°C -2°F / -19°C 56% 30.27 in
(1025 mb)
W 12.7 mph
(W 20 kph)
- 10SM
01:01
Overcast
12°F / -11°C 1°F / -17°C 62% 30.24 in
(1024 mb)
WNW 15 mph
(WNW 24 kph)
- 9SM
00:53
Overcast
12°F / -11°C 1°F / -17°C 62% 30.24 in
(1024 mb)
WNW 18.4 mph
(WNW 30 kph)
0.00 in
(0.00 mm)
7SM
00:32
Overcast
Light Snow
14°F / -10°C 9°F / -13°C 79% 30.21 in
(1023 mb)
NW 12.7 mph
(NW 20 kph)
0.00 in
(0.00 mm)
3SM
00:02
Overcast
Light Snow
18°F / -8°C 12°F / -11°C 79% 30.21 in
(1023 mb)
NW 16.1 mph
(NW 26 kph)
0.00 in
(0.00 mm)
2 1/2SM
Time Weather Temperature Dewpoint Humidity Pressure Winds Precip Visibility


Weather for websites

WeatherForYou.com, LLC is not responsible for any damages or problems caused by this service. Current weather conditions are obtained from the closest station including government and personal stations which may have varying degrees of accuracy. Weather forecasts are derived from the NOAA NDFD. Like all things, this site belongs to Jesus Christ... He just trusts me to maintain it. If you have any questions or comments email webmaster@weatherforyou.com

Copyright © 2015, WeatherForYou.com LLC. All rights reserved.